Weather in Genk

Belgium     50°58′00″N   5°30′07″E
temp.,
°C
wind,
m/s
gust,
m/s
humid.,
%
clouds,
%
prec.,
mm/h
press.,
hPa
HPBL,
m
25 june, sat
sat2523:00+17s410948 0.6 1009273
02:00+15ssw410935 0.6 1010264
05:00+15ssw410945 0.0 1010296
08:00+17ssw498414 0.0 1012485
11:00+21ssw566897 0.3 10111198
14:00+23sw465691 0.4 10111520
17:00+22ssw4668100 0.9 10111037
20:00+17w4894100 3.6 1012287
26 june, sun
sun2623:00+15sw2798100 1.3 1013224
02:00+16ssw31095100 1.4 1013505
05:00+14sw389877 0.1 1014377
08:00+14ssw2693100 0.2 1016372
11:00+18wsw4566100 0.0 1016775
14:00+21sw3547100 0.0 10161744
17:00+23ssw3543100 0.0 10151998
20:00+20se0161100 0.0 101519
27 june, mon
mon2723:00+17ne2283100 0.3 101537
02:00+17ese1287100 0.5 101640
05:00+16se1193100 0.1 101529
08:00+16wsw2387100 0.1 1016113
11:00+21wnw335598 0.0 10161087
14:00+21w3363100 0.7 1016968
17:00+16w4890100 2.3 1018327
20:00+13wnw41096100 8.8 1021490
28 june, tue
tue2823:00+11sw239816 0.3 102266
02:00+10ssw25965 0.3 102393
05:00+10ssw36965 0.0 1023135
08:00+13sw34881 0.0 1023204
11:00+19ssw23580 0.0 1023988
14:00+23ssw244332 0.0 10212092
17:00+24ssw233724 0.0 10202175
20:00+23sse115414 0.0 101922
29 june, wed
wed2923:00+17ese366522 0.0 1020105
02:00+15ese236655 0.0 102052
05:00+14se227455 0.0 101920
08:00+18se126132 0.0 1018145
11:00+24ese23415 0.0 10171051
14:00+28ssw24321 0.0 10152266
17:00+29wsw24301 0.0 10142559
20:00+26nnw235069 0.0 1013102